[[{"header":{"parameterUnit":"m.s-1","parameterCategory":1,"la1":30.2991,"la2":30.254,"lo1":-89.0895,"lo2":-89.0444,"dy":0.0017,"dx":0.0017,"nx":28,"ny":28,"refTime":"2023-09-10T03:00:00:Z","depth":0,"parameterNumber":2,"parameterNumberName":"U-component_of_WINDS"},"data":[0,0,0,0,0,0,0,0,0,0,0,0,0,0,0,0,0,0,0,0,0,0,0,0,0,0,0,0,0,0,0,0,0,0,0,0,0,0,0,0,0,0,0,0,0,0,0,0,0,0,0,0,0,0,0,0,0,0,-1.3263,-1.3263,0,-1.3265,-1.3265,-1.3265,-1.3231,-1.323,-1.3229,-1.3228,-1.3231,-1.3232,-1.3233,0,0,0,0,0,0,0,0,0,0,0,0,0,-1.323,-1.3231,-1.3263,-1.3263,-1.3263,-1.3265,-1.3265,-1.3265,-1.3231,-1.323,-1.3229,-1.3228,-1.3231,-1.3232,-1.3233,0,0,0,0,0,0,0,0,0,0,0,0,0,-1.324,-1.3231,-1.3263,-1.3246,-1.3245,-1.3265,-1.3265,-1.3265,-1.3231,-1.323,-1.3229,-1.3227,-1.323,-1.3232,-1.3233,-1.3269,0,0,-1.3237,-1.3238,0,0,0,0,0,0,0,0,-1.3239,-1.3241,-1.3249,-1.3247,-1.3246,-1.3246,-1.3254,-1.3266,-1.3232,-1.3236,-1.3228,-1.3227,-1.3237,-1.3238,-1.3241,-1.327,-1.327,-1.3238,-1.3238,-1.3239,-1.3239,0,0,0,0,0,0,0,-1.3239,-1.3241,-1.3264,-1.3249,-1.3247,-1.3239,-1.3239,-1.3256,-1.3245,-1.3236,-1.3233,-1.3234,-1.3236,-1.324,-1.3241,-1.327,-1.3238,-1.3239,-1.324,-1.324,-1.3328,-1.3329,0,0,0,0,0,0,-1.324,-1.324,-1.3263,-1.3264,-1.3239,-1.3241,-1.324,-1.3247,-1.3244,-1.3243,-1.3235,-1.3233,-1.3239,-1.324,-1.3241,-1.3284,-1.3239,-1.324,-1.3241,-1.3326,-1.3328,-1.333,0,0,0,0,0,0,-1.3239,-1.3242,-1.3263,-1.3251,-1.3253,-1.3243,-1.3251,-1.3248,-1.3252,-1.3244,-1.3242,-1.3242,-1.3237,-1.3239,-1.3263,-1.3284,-1.3241,-1.3242,-1.3325,-1.3327,-1.3329,-1.337,0,0,0,0,0,0,-1.3239,-1.3242,-1.3256,-1.3252,-1.3254,-1.3285,-1.3252,-1.3249,-1.3255,-1.3251,-1.3249,-1.3247,-1.3237,-1.3261,-1.3264,-1.3285,-1.3243,-1.3323,-1.3326,-1.3328,-1.3366,-1.3373,-1.3379,0,0,0,0,0,-1.3238,-1.3267,-1.3257,-1.326,-1.3271,-1.3286,-1.3287,-1.3274,-1.3256,-1.327,-1.3265,-1.3248,-1.3281,-1.3263,-1.3267,-1.3288,-1.3321,-1.3325,-1.3328,-1.3364,-1.3372,-1.3378,0,0,0,0,0,0,-1.3275,-1.3267,-1.3255,-1.3284,-1.3286,-1.328,-1.3297,-1.3283,-1.329,-1.3286,-1.327,-1.3269,-1.3296,-1.3294,-1.3275,-1.3323,-1.3298,-1.3302,-1.3324,-1.3331,-1.3337,-1.3338,-1.3245,0,0,0,0,0,-1.3286,-1.3299,-1.3291,-1.3318,-1.3319,-1.3308,-1.3314,-1.3304,-1.3305,-1.3306,-1.3302,-1.3305,-1.3315,-1.3323,-1.3333,-1.3365,-1.3365,-1.3382,-1.3388,-1.3393,-1.3397,-1.3415,-1.3423,-1.3341,-1.3341,-1.3341,0,0,-1.331,-1.3307,-1.3317,-1.3325,-1.3325,-1.334,-1.3309,-1.3325,-1.3336,-1.3308,-1.3331,-1.3328,-1.3329,-1.3358,-1.337,-1.3357,-1.342,-1.3397,-1.3401,-1.3403,-1.342,-1.3427,-1.3434,-1.3343,-1.3343,-1.3342,0,0,-1.3362,-1.336,-1.3383,-1.3383,-1.3384,-1.3376,-1.3382,-1.3378,-1.3375,-1.3397,-1.3377,-1.3389,-1.3408,-1.341,-1.3414,-1.3465,-1.345,-1.3469,-1.3501,-1.3519,-1.3525,-1.3531,-1.3551,-1.3558,-1.3473,-1.3473,-1.3473,0,-1.3392,-1.3412,-1.3396,-1.3414,-1.3418,-1.3394,-1.3416,-1.3418,-1.3422,-1.3426,-1.3411,-1.3434,-1.3433,-1.3462,-1.3475,-1.3478,-1.3484,-1.347,-1.3526,-1.3531,-1.3536,-1.3555,-1.3562,-1.3475,-1.3475,-1.3475,-1.3474,0,-1.3449,-1.3463,-1.3481,-1.3486,-1.3492,-1.3512,-1.35,-1.3508,-1.3497,-1.3491,-1.3513,-1.3511,-1.352,-1.3526,-1.3515,-1.3554,-1.3546,-1.3528,-1.3503,-1.3547,-1.3564,-1.3571,-1.3479,-1.3478,-1.3477,-1.3476,0,0,-1.3525,-1.352,-1.3527,-1.3529,-1.3527,-1.3538,-1.3557,-1.3566,-1.3574,-1.3577,-1.3593,-1.3609,-1.3593,-1.3597,-1.3586,-1.3602,-1.3644,-1.3583,-1.3582,-1.3595,-1.3687,-1.3701,-1.3709,-1.3633,-1.3634,-1.3635,-1.3687,0,-1.3576,-1.3608,-1.3594,-1.3628,-1.3641,-1.3618,-1.3634,-1.3635,-1.363,-1.3641,-1.3635,-1.3647,-1.3625,-1.3627,-1.3641,-1.3636,-1.3662,-1.3631,-1.3649,-1.3649,-1.365,-1.3718,-1.3733,-1.3782,-1.3694,-1.3695,-1.3696,0,-1.364,-1.3645,-1.3681,-1.3677,-1.3682,-1.3697,-1.3704,-1.3714,-1.3715,-1.371,-1.3714,-1.37,-1.3719,-1.3692,-1.3718,-1.3697,-1.3703,-1.3701,-1.3703,-1.3705,-1.3676,-1.3723,-1.3797,-1.3805,-1.3706,-1.3705,-1.3704,0,-1.3693,-1.3709,-1.3733,-1.3735,-1.3731,-1.3742,-1.3741,-1.374,-1.3747,-1.3752,-1.3756,-1.3764,-1.3769,-1.3775,-1.3763,-1.3745,-1.3791,-1.3763,-1.3788,-1.3789,-1.38,-1.38,-1.3878,-1.3802,-1.3802,-1.3802,-1.3802,0,-1.3752,-1.3774,-1.3757,-1.3771,-1.3796,-1.3779,-1.3804,-1.3801,-1.38,-1.3814,-1.3793,-1.3807,-1.379,-1.3801,-1.3792,-1.3815,-1.3817,-1.3814,-1.3812,-1.3817,-1.3817,-1.3822,-1.3818,-1.3804,-1.3803,-1.3803,-1.3803,0,-1.3816,-1.3805,-1.3829,-1.3823,-1.3822,-1.3841,-1.3836,-1.3849,-1.3842,-1.386,-1.3863,-1.3852,-1.3864,-1.3853,-1.3865,-1.3858,-1.389,-1.3882,-1.389,-1.3888,-1.3914,-1.3912,-1.3998,-1.4009,-1.3925,-1.3926,-1.3927,0,-1.3855,-1.3872,-1.3868,-1.3876,-1.3876,-1.3888,-1.3894,-1.3878,-1.3886,-1.3888,-1.3901,-1.3912,-1.392,-1.3941,-1.3934,-1.3943,-1.3936,-1.3966,-1.3938,-1.3942,-1.3938,-1.3938,-1.394,-1.3972,-1.3973,-1.3974,-1.3974,0,-1.3926,-1.392,-1.3929,-1.3937,-1.3944,-1.3949,-1.3953,-1.396,-1.3944,-1.3953,-1.3966,-1.3972,-1.3984,-1.3995,-1.4002,-1.4001,-1.3986,-1.3983,-1.3989,-1.3996,-1.4,-1.3999,-1.3907,-1.3981,-1.3981,-1.398,-1.398,-1.398,-1.398,-1.3994,-1.3994,-1.4005,-1.4006,-1.4009,-1.4022,-1.4016,-1.4026,-1.4035,-1.4025,-1.404,-1.4041,-1.4048,-1.4049,-1.4061,-1.4049,-1.4058,-1.4061,-1.4064,-1.4068,-1.3997,-1.4062,-1.4062,-1.4062,-1.4062,-1.4062,0,-1.4051,-1.4049,-1.406,-1.4065,-1.4074,-1.4057,-1.4061,-1.4069,-1.4083,-1.4085,-1.4093,-1.4107,-1.4118,-1.4112,-1.4121,-1.4132,-1.4125,-1.4136,-1.4135,-1.4136,-1.4078,-1.4072,-1.4141,-1.4141,-1.4141,-1.4141,-1.4141,-1.4141,-1.4089,-1.4112,-1.4106,-1.4129,-1.4127,-1.4143,-1.4146,-1.4149,-1.4151,-1.4168,-1.4177,-1.4172,-1.4171,-1.418,-1.4189,-1.4187,-1.4192,-1.4205,-1.4201,-1.4147,-1.4139,-1.4132,-1.4127,-1.4206,-1.4206,-1.4257,-1.4258,-1.4258]},{"header":{"parameterUnit":"m.s-1","parameterCategory":1,"la1":30.2991,"la2":30.254,"lo1":-89.0895,"lo2":-89.0444,"dy":0.0017,"dx":0.0017,"nx":28,"ny":28,"refTime":"2023-09-10T03:00:00:Z","depth":0,"parameterNumber":3,"parameterNumberName":"V-component_of_WINDS"},"data":[0,0,0,0,0,0,0,0,0,0,0,0,0,0,0,0,0,0,0,0,0,0,0,0,0,0,0,0,0,0,0,0,0,0,0,0,0,0,0,0,0,0,0,0,0,0,0,0,0,0,0,0,0,0,0,0,0,0,-3.1869,-3.1869,0,-3.1903,-3.1903,-3.1904,-3.1868,-3.1867,-3.1866,-3.1865,-3.1896,-3.1898,-3.19,0,0,0,0,0,0,0,0,0,0,0,0,0,-3.1771,-3.1773,-3.1869,-3.1869,-3.187,-3.1903,-3.1903,-3.1904,-3.1869,-3.1867,-3.1865,-3.1864,-3.1896,-3.1898,-3.1901,0,0,0,0,0,0,0,0,0,0,0,0,0,-3.181,-3.1774,-3.1869,-3.1856,-3.1856,-3.1903,-3.1903,-3.1904,-3.1869,-3.1867,-3.1865,-3.1863,-3.1895,-3.1898,-3.1901,-3.1961,0,0,-3.1911,-3.1912,0,0,0,0,0,0,0,0,-3.1808,-3.1814,-3.1858,-3.1857,-3.1857,-3.1879,-3.188,-3.1923,-3.187,-3.1864,-3.1864,-3.1862,-3.1892,-3.1895,-3.1906,-3.1963,-3.1964,-3.1911,-3.1913,-3.1914,-3.1915,0,0,0,0,0,0,0,-3.1805,-3.1812,-3.1882,-3.1858,-3.1858,-3.1848,-3.1851,-3.1888,-3.1889,-3.1864,-3.1862,-3.1866,-3.1891,-3.1903,-3.1907,-3.1964,-3.1911,-3.1914,-3.1916,-3.1917,-3.2073,-3.2075,0,0,0,0,0,0,-3.1804,-3.181,-3.1881,-3.1883,-3.1827,-3.1852,-3.1855,-3.1874,-3.1888,-3.1889,-3.1868,-3.1865,-3.1899,-3.1903,-3.1908,-3.198,-3.1914,-3.1917,-3.1919,-3.207,-3.2073,-3.2075,0,0,0,0,0,0,-3.1802,-3.1811,-3.188,-3.1846,-3.1854,-3.1855,-3.1877,-3.1876,-3.1888,-3.1891,-3.1891,-3.188,-3.1897,-3.1903,-3.1948,-3.198,-3.1919,-3.1921,-3.2068,-3.2071,-3.2074,-3.2124,0,0,0,0,0,0,-3.18,-3.1811,-3.1834,-3.1847,-3.1856,-3.1921,-3.1879,-3.1878,-3.1893,-3.1889,-3.1903,-3.1903,-3.1896,-3.1944,-3.1952,-3.1984,-3.1924,-3.2065,-3.2069,-3.2073,-3.212,-3.2129,-3.2137,0,0,0,0,0,-3.1796,-3.1846,-3.1835,-3.1844,-3.1886,-3.1923,-3.1928,-3.192,-3.1896,-3.192,-3.1922,-3.1902,-3.1975,-3.1949,-3.1957,-3.1991,-3.2063,-3.2068,-3.2073,-3.2116,-3.2127,-3.2137,0,0,0,0,0,0,-3.1835,-3.1847,-3.1836,-3.1891,-3.1907,-3.1917,-3.1946,-3.1932,-3.1954,-3.1949,-3.1937,-3.194,-3.1989,-3.1994,-3.1964,-3.205,-3.2015,-3.2022,-3.2045,-3.2056,-3.2064,-3.2062,-3.1927,0,0,0,0,0,-3.1851,-3.1881,-3.1889,-3.1937,-3.1946,-3.1945,-3.1961,-3.1953,-3.1968,-3.1974,-3.198,-3.1995,-3.2021,-3.2038,-3.2062,-3.212,-3.2123,-3.2147,-3.2155,-3.2162,-3.2169,-3.22,-3.2212,-3.2092,-3.2092,-3.2092,0,0,-3.1882,-3.1892,-3.1912,-3.1945,-3.1956,-3.1988,-3.195,-3.1984,-3.2007,-3.1979,-3.2023,-3.2028,-3.2043,-3.2095,-3.2118,-3.2101,-3.2202,-3.2169,-3.2174,-3.2177,-3.2207,-3.2218,-3.2228,-3.2095,-3.2095,-3.2094,0,0,-3.1956,-3.1966,-3.2008,-3.202,-3.2038,-3.2037,-3.2047,-3.206,-3.2063,-3.2107,-3.2086,-3.2112,-3.2158,-3.217,-3.2182,-3.2261,-3.2244,-3.2269,-3.2313,-3.2344,-3.2354,-3.2362,-3.2391,-3.2401,-3.2275,-3.2275,-3.2275,0,-3.1993,-3.204,-3.2031,-3.2068,-3.2083,-3.206,-3.2102,-3.2113,-3.2138,-3.2148,-3.2129,-3.2186,-3.2194,-3.2249,-3.2269,-3.2279,-3.229,-3.2268,-3.2353,-3.2361,-3.2369,-3.2397,-3.2407,-3.2278,-3.2278,-3.2277,-3.2277,0,-3.2084,-3.2117,-3.2149,-3.2175,-3.2193,-3.2232,-3.2229,-3.2248,-3.2239,-3.224,-3.2285,-3.2295,-3.2321,-3.2333,-3.2324,-3.2387,-3.2376,-3.2355,-3.232,-3.2384,-3.2409,-3.242,-3.2282,-3.2281,-3.228,-3.228,0,0,-3.2184,-3.2205,-3.2217,-3.2229,-3.2247,-3.2272,-3.2309,-3.2336,-3.2353,-3.2371,-3.2402,-3.2441,-3.2422,-3.2436,-3.2428,-3.2455,-3.2518,-3.243,-3.243,-3.2447,-3.2589,-3.2605,-3.2618,-3.2506,-3.2508,-3.251,-3.2588,0,-3.2259,-3.2326,-3.232,-3.2383,-3.2413,-3.2392,-3.2425,-3.2439,-3.2441,-3.2466,-3.2467,-3.2496,-3.2468,-3.2476,-3.2502,-3.2505,-3.2546,-3.2499,-3.2535,-3.2537,-3.2533,-3.2631,-3.2649,-3.2722,-3.2598,-3.2599,-3.26,0,-3.2356,-3.2378,-3.2445,-3.246,-3.2472,-3.2502,-3.2526,-3.2551,-3.2566,-3.2566,-3.2582,-3.2569,-3.2606,-3.257,-3.2621,-3.2589,-3.2603,-3.2607,-3.2609,-3.2613,-3.2573,-3.2638,-3.2745,-3.2756,-3.2616,-3.2615,-3.2614,0,-3.2423,-3.247,-3.2516,-3.2527,-3.2544,-3.2566,-3.2574,-3.2587,-3.2604,-3.2625,-3.2636,-3.266,-3.2674,-3.2693,-3.2687,-3.2661,-3.274,-3.2702,-3.274,-3.274,-3.2758,-3.2758,-3.287,-3.2766,-3.2766,-3.2766,-3.2765,0,-3.2508,-3.255,-3.2547,-3.2576,-3.2622,-3.2614,-3.2659,-3.2664,-3.2677,-3.2705,-3.2687,-3.2714,-3.2705,-3.2731,-3.2726,-3.277,-3.2776,-3.2776,-3.2775,-3.2779,-3.2779,-3.2789,-3.2784,-3.2769,-3.2768,-3.2767,-3.2767,0,-3.2592,-3.2591,-3.2641,-3.2654,-3.2658,-3.2691,-3.2702,-3.2729,-3.2729,-3.2766,-3.2774,-3.2774,-3.2804,-3.28,-3.2833,-3.283,-3.2885,-3.2877,-3.2881,-3.2879,-3.2917,-3.2914,-3.3041,-3.3057,-3.2942,-3.2943,-3.2944,0,-3.2647,-3.2679,-3.2696,-3.2715,-3.2725,-3.2754,-3.2772,-3.2765,-3.2783,-3.2804,-3.2828,-3.2857,-3.288,-3.2929,-3.2932,-3.2957,-3.295,-3.2992,-3.2953,-3.2957,-3.2952,-3.295,-3.2954,-3.3,-3.3001,-3.3003,-3.3003,0,-3.2745,-3.2743,-3.277,-3.2797,-3.2819,-3.2839,-3.2858,-3.2873,-3.2868,-3.289,-3.2921,-3.2939,-3.2973,-3.3002,-3.3026,-3.3033,-3.3018,-3.3016,-3.3026,-3.3031,-3.3032,-3.3033,-3.2903,-3.3013,-3.3012,-3.3011,-3.3011,-3.301,-3.2817,-3.2845,-3.2861,-3.2892,-3.2905,-3.2923,-3.2949,-3.2953,-3.298,-3.3009,-3.3002,-3.3038,-3.3052,-3.3083,-3.3093,-3.312,-3.3104,-3.3119,-3.3123,-3.3127,-3.3132,-3.3027,-3.3124,-3.3124,-3.3123,-3.3123,-3.3123,0,-3.2915,-3.2925,-3.2953,-3.298,-3.3004,-3.2988,-3.3008,-3.3028,-3.3061,-3.3076,-3.3099,-3.3135,-3.3163,-3.3169,-3.3195,-3.3216,-3.321,-3.3224,-3.3222,-3.3225,-3.3144,-3.3133,-3.3228,-3.3228,-3.3228,-3.3228,-3.3228,-3.3228,-3.2969,-3.3016,-3.3016,-3.3069,-3.3078,-3.3115,-3.3127,-3.3143,-3.3156,-3.3198,-3.3222,-3.3225,-3.3237,-3.3264,-3.3289,-3.329,-3.3301,-3.3318,-3.3316,-3.324,-3.323,-3.322,-3.321,-3.332,-3.332,-3.3394,-3.3395,-3.3395]}]]